GLO1240 SBGR-SBPA

Flight info

Callsign GLO1240
Flight time 1h 19m
Altitude 38000
Route UBSOD UZ38 VUKMO
Aircraft B738/M-SDFGIKLORWXY/LB1

Departure

Time 2026-05-04 05:31
Airport São Paulo/Guarulhos–Governor André Franco Montoro International Airport (SBGR)

Arrival

Time 2026-05-04 06:50
Airport Porto Alegre-Salgado Filho International Airport (SBPA)
Time Latitude Longitude Altitude Speed Heading
2026-05-04 05:18 -23.42761 -46.48246 2464 ft 0 kts 264°
2026-05-04 05:25 -23.42760 -46.48242 2464 ft 3 kts 263°
2026-05-04 05:25 -23.42754 -46.48215 2464 ft 4 kts 237°
2026-05-04 05:26 -23.42736 -46.48195 2464 ft 4 kts 206°
2026-05-04 05:26 -23.42711 -46.48188 2464 ft 3 kts 176°
2026-05-04 05:26 -23.42708 -46.48188 2464 ft 0 kts 174°
2026-05-04 05:28 -23.42939 -46.48146 2467 ft 20 kts 161°
2026-05-04 05:29 -23.43075 -46.48128 2467 ft 19 kts 179°
2026-05-04 05:29 -23.43144 -46.48237 2469 ft 19 kts 253°
2026-05-04 05:29 -23.43185 -46.48369 2471 ft 18 kts 232°
2026-05-04 05:29 -23.43302 -46.48363 2471 ft 18 kts 163°
2026-05-04 05:31 -23.41855 -46.42655 4007 ft 206 kts 73°
2026-05-04 05:31 -23.41392 -46.41074 4203 ft 232 kts 72°
2026-05-04 05:32 -23.40875 -46.39320 4624 ft 250 kts 72°
2026-05-04 05:32 -23.40339 -46.37493 5318 ft 256 kts 74°
2026-05-04 05:32 -23.40243 -46.35522 5856 ft 270 kts 102°
2026-05-04 05:33 -23.42497 -46.32204 7036 ft 289 kts 154°
2026-05-04 05:33 -23.44424 -46.31656 7740 ft 289 kts 181°
2026-05-04 05:33 -23.46356 -46.32149 8457 ft 287 kts 210°
2026-05-04 05:33 -23.47964 -46.33425 9177 ft 288 kts 223°
2026-05-04 05:34 -23.49447 -46.34910 9888 ft 291 kts 225°
2026-05-04 05:34 -23.50898 -46.36430 10531 ft 296 kts 226°
2026-05-04 05:34 -23.52457 -46.38075 10730 ft 318 kts 226°
2026-05-04 05:34 -23.54081 -46.39783 10894 ft 339 kts 225°
2026-05-04 05:35 -23.55833 -46.41613 11041 ft 358 kts 225°
2026-05-04 05:35 -23.57674 -46.43523 11215 ft 373 kts 225°
2026-05-04 05:35 -23.59580 -46.45492 11651 ft 379 kts 225°
2026-05-04 05:35 -23.61501 -46.47470 12254 ft 379 kts 225°
2026-05-04 05:36 -23.63424 -46.49446 12914 ft 379 kts 225°
2026-05-04 05:36 -23.65350 -46.51424 13534 ft 380 kts 225°
2026-05-04 05:36 -23.67282 -46.53410 14122 ft 382 kts 225°
2026-05-04 05:36 -23.69220 -46.55404 14630 ft 384 kts 225°
2026-05-04 05:37 -23.71145 -46.57384 15145 ft 386 kts 225°
2026-05-04 05:37 -23.73100 -46.59397 15689 ft 388 kts 225°
2026-05-04 05:37 -23.75070 -46.61425 16206 ft 390 kts 226°
2026-05-04 05:38 -23.79041 -46.65518 17191 ft 395 kts 226°
2026-05-04 05:38 -23.81046 -46.67586 17673 ft 398 kts 226°
2026-05-04 05:38 -23.83062 -46.69667 18156 ft 400 kts 226°
2026-05-04 05:38 -23.85097 -46.71767 18600 ft 403 kts 226°
2026-05-04 05:39 -23.87139 -46.73876 19016 ft 405 kts 227°
2026-05-04 05:39 -23.91245 -46.78118 19861 ft 408 kts 227°
2026-05-04 05:39 -23.93309 -46.80252 20272 ft 409 kts 227°
2026-05-04 05:40 -23.97462 -46.84550 21123 ft 413 kts 227°
2026-05-04 05:40 -23.99550 -46.86712 21530 ft 414 kts 227°
2026-05-04 05:40 -24.01649 -46.88886 21939 ft 416 kts 227°
2026-05-04 05:41 -24.03756 -46.91070 22341 ft 417 kts 227°
2026-05-04 05:41 -24.05871 -46.93262 22739 ft 419 kts 227°
2026-05-04 05:41 -24.07991 -46.95463 23107 ft 421 kts 227°
2026-05-04 05:41 -24.10126 -46.97679 23493 ft 423 kts 227°
2026-05-04 05:42 -24.12264 -46.99899 23852 ft 425 kts 227°
2026-05-04 05:42 -24.14382 -47.02099 24173 ft 425 kts 227°
2026-05-04 05:42 -24.16529 -47.04331 24496 ft 426 kts 227°
2026-05-04 05:42 -24.18686 -47.06575 24822 ft 427 kts 227°
2026-05-04 05:43 -24.20841 -47.08817 25134 ft 428 kts 227°
2026-05-04 05:43 -24.23010 -47.11075 25431 ft 429 kts 228°
2026-05-04 05:43 -24.25176 -47.13325 25719 ft 431 kts 227°
2026-05-04 05:45 -24.43112 -47.26144 27495 ft 445 kts 218°
2026-05-04 05:45 -24.45735 -47.27966 27822 ft 444 kts 218°
2026-05-04 05:47 -24.62812 -47.39868 30523 ft 430 kts 219°
2026-05-04 05:47 -24.65338 -47.41633 30872 ft 428 kts 219°
2026-05-04 05:47 -24.67847 -47.43387 31149 ft 428 kts 219°
2026-05-04 05:48 -24.71181 -47.45720 31510 ft 428 kts 219°
2026-05-04 05:48 -24.72879 -47.46909 31722 ft 427 kts 220°
2026-05-04 05:48 -24.75385 -47.48662 32043 ft 426 kts 220°
2026-05-04 05:48 -24.77854 -47.50391 32353 ft 425 kts 220°
2026-05-04 05:49 -24.80354 -47.52142 32643 ft 425 kts 220°
2026-05-04 05:49 -24.82856 -47.53896 32970 ft 424 kts 220°
2026-05-04 05:49 -24.85346 -47.55641 33316 ft 422 kts 220°
2026-05-04 05:49 -24.87821 -47.57377 33600 ft 422 kts 220°
2026-05-04 05:51 -25.05002 -47.69453 35467 ft 414 kts 220°
2026-05-04 05:51 -25.07431 -47.71164 35727 ft 413 kts 220°
2026-05-04 05:52 -25.09853 -47.72871 35986 ft 412 kts 220°
2026-05-04 05:52 -25.12234 -47.74549 36263 ft 410 kts 220°
2026-05-04 05:52 -25.14661 -47.76261 36578 ft 407 kts 220°
2026-05-04 05:52 -25.17014 -47.77921 36834 ft 406 kts 220°
2026-05-04 05:53 -25.19392 -47.79601 37025 ft 406 kts 220°
2026-05-04 05:54 -25.36024 -47.91380 38141 ft 406 kts 220°
2026-05-04 05:55 -25.40750 -47.94749 38155 ft 405 kts 220°
2026-05-04 05:55 -25.45487 -47.98125 38162 ft 403 kts 220°
2026-05-04 05:56 -25.50176 -48.01472 38170 ft 402 kts 220°
2026-05-04 05:56 -25.54871 -48.04826 38157 ft 401 kts 220°
2026-05-04 05:57 -25.59552 -48.08173 38163 ft 400 kts 220°
2026-05-04 05:57 -25.64220 -48.11510 38156 ft 399 kts 220°
2026-05-04 05:58 -25.68902 -48.14834 38157 ft 399 kts 220°
2026-05-04 05:58 -25.73553 -48.18134 38195 ft 400 kts 220°
2026-05-04 05:59 -25.78250 -48.21473 38170 ft 401 kts 220°
2026-05-04 05:59 -25.82972 -48.24835 38161 ft 402 kts 220°
2026-05-04 06:00 -25.87662 -48.28177 38162 ft 403 kts 220°
2026-05-04 06:00 -25.92390 -48.31549 38160 ft 404 kts 220°
2026-05-04 06:01 -25.97135 -48.34937 38158 ft 405 kts 220°
2026-05-04 06:03 -26.16098 -48.48510 38160 ft 405 kts 220°
2026-05-04 06:05 -26.37340 -48.63813 38174 ft 405 kts 220°
2026-05-04 06:06 -26.42060 -48.67233 38174 ft 405 kts 220°
2026-05-04 06:06 -26.46794 -48.70666 38165 ft 405 kts 220°
2026-05-04 06:07 -26.51490 -48.74099 38165 ft 405 kts 220°
2026-05-04 06:07 -26.56195 -48.77554 38164 ft 405 kts 220°
2026-05-04 06:08 -26.60910 -48.81017 38169 ft 405 kts 220°
2026-05-04 06:08 -26.65632 -48.84486 38179 ft 405 kts 220°
2026-05-04 06:09 -26.70359 -48.87949 38180 ft 406 kts 220°
2026-05-04 06:11 -26.89226 -49.01744 38181 ft 405 kts 220°
2026-05-04 06:13 -27.08117 -49.15627 38187 ft 406 kts 220°
2026-05-04 06:14 -27.24663 -49.27831 38192 ft 407 kts 220°
2026-05-04 06:15 -27.29400 -49.31334 38194 ft 408 kts 219°
2026-05-04 06:15 -27.34113 -49.34822 38192 ft 408 kts 219°
2026-05-04 06:16 -27.38855 -49.38335 38193 ft 407 kts 219°
2026-05-04 06:16 -27.43561 -49.41826 38186 ft 407 kts 219°
2026-05-04 06:17 -27.48286 -49.45334 38199 ft 407 kts 219°
2026-05-04 06:17 -27.53025 -49.48857 38203 ft 407 kts 219°
2026-05-04 06:18 -27.57765 -49.52377 38203 ft 407 kts 219°
2026-05-04 06:20 -27.76680 -49.66358 38198 ft 407 kts 218°
2026-05-04 06:21 -27.88675 -49.74881 38216 ft 407 kts 217°
2026-05-04 06:22 -27.93458 -49.78295 38209 ft 406 kts 217°
2026-05-04 06:25 -28.26775 -50.02208 38168 ft 404 kts 217°
2026-05-04 06:26 -28.31534 -50.05638 38171 ft 403 kts 217°
2026-05-04 06:26 -28.36237 -50.09032 38173 ft 403 kts 217°
2026-05-04 06:27 -28.48056 -50.17578 38161 ft 403 kts 217°
2026-05-04 06:28 -28.52796 -50.21012 38167 ft 402 kts 217°
2026-05-04 06:28 -28.57488 -50.24414 38157 ft 402 kts 217°
2026-05-04 06:29 -28.62197 -50.27832 38164 ft 401 kts 217°
2026-05-04 06:29 -28.66905 -50.31254 38162 ft 401 kts 217°
2026-05-04 06:30 -28.71610 -50.34677 38147 ft 401 kts 217°
2026-05-04 06:30 -28.73955 -50.36457 37555 ft 404 kts 219°
2026-05-04 06:30 -28.76188 -50.38317 37003 ft 401 kts 220°
2026-05-04 06:31 -28.78414 -50.40241 36410 ft 399 kts 220°
2026-05-04 06:31 -28.80624 -50.42167 35787 ft 400 kts 220°
2026-05-04 06:31 -28.82846 -50.44097 35116 ft 401 kts 220°
2026-05-04 06:31 -28.85081 -50.46028 34440 ft 403 kts 219°
2026-05-04 06:32 -28.87301 -50.47936 33683 ft 406 kts 219°
2026-05-04 06:33 -29.03416 -50.61744 27920 ft 422 kts 219°
2026-05-04 06:34 -29.04971 -50.63079 27305 ft 424 kts 219°
2026-05-04 06:34 -29.08090 -50.65757 26404 ft 420 kts 219°
2026-05-04 06:34 -29.10413 -50.67783 25522 ft 421 kts 220°
2026-05-04 06:34 -29.12721 -50.69882 24480 ft 428 kts 220°
2026-05-04 06:35 -29.15048 -50.72038 23538 ft 432 kts 220°
2026-05-04 06:36 -29.30121 -50.85974 18878 ft 406 kts 221°
2026-05-04 06:37 -29.32314 -50.87996 18192 ft 403 kts 221°
2026-05-04 06:37 -29.34498 -50.90010 17416 ft 401 kts 221°
2026-05-04 06:37 -29.36662 -50.92008 16729 ft 398 kts 221°
2026-05-04 06:37 -29.38805 -50.93987 16082 ft 394 kts 221°
2026-05-04 06:38 -29.40930 -50.95950 15437 ft 390 kts 221°
2026-05-04 06:38 -29.43038 -50.97898 14802 ft 388 kts 221°
2026-05-04 06:40 -29.57292 -51.11104 10431 ft 364 kts 222°
2026-05-04 06:40 -29.59255 -51.12927 9910 ft 360 kts 222°
2026-05-04 06:40 -29.61127 -51.14663 9794 ft 343 kts 222°
2026-05-04 06:40 -29.62994 -51.16398 9207 ft 343 kts 222°
2026-05-04 06:41 -29.64859 -51.18133 8769 ft 337 kts 222°
2026-05-04 06:41 -29.66637 -51.19788 8421 ft 331 kts 222°
2026-05-04 06:41 -29.68412 -51.21440 8069 ft 325 kts 222°
2026-05-04 06:41 -29.70153 -51.23061 7735 ft 319 kts 222°
2026-05-04 06:42 -29.71866 -51.24657 7403 ft 314 kts 222°
2026-05-04 06:42 -29.73557 -51.26235 7077 ft 310 kts 222°
2026-05-04 06:42 -29.75217 -51.27783 6765 ft 306 kts 222°
2026-05-04 06:44 -29.86383 -51.38216 4569 ft 286 kts 222°
2026-05-04 06:44 -29.87932 -51.39650 4262 ft 284 kts 219°
2026-05-04 06:44 -29.89738 -51.40560 3948 ft 288 kts 189°
2026-05-04 06:45 -29.91698 -51.40411 3712 ft 286 kts 165°
2026-05-04 06:45 -29.93583 -51.39692 3452 ft 278 kts 161°
2026-05-04 06:45 -29.95357 -51.38972 3187 ft 269 kts 161°
2026-05-04 06:45 -29.97097 -51.38274 2938 ft 260 kts 160°
2026-05-04 06:46 -29.98642 -51.37315 2723 ft 246 kts 130°
2026-05-04 06:46 -29.99283 -51.35658 2701 ft 214 kts 88°
2026-05-04 06:46 -29.99154 -51.34054 2640 ft 193 kts 83°
2026-05-04 06:46 -29.99158 -51.32538 2446 ft 186 kts 88°
2026-05-04 06:48 -29.99346 -51.23058 858 ft 148 kts 90°
2026-05-04 06:48 -29.99364 -51.21861 664 ft 149 kts 91°
2026-05-04 06:49 -29.99392 -51.20665 458 ft 149 kts 91°
2026-05-04 06:50 -29.99287 -51.16344 18 ft 20 kts 271°
2026-05-04 06:51 -29.99284 -51.16506 18 ft 20 kts 271°
2026-05-04 06:51 -29.99281 -51.16663 18 ft 19 kts 271°
2026-05-04 06:51 -29.99278 -51.16814 18 ft 19 kts 271°
2026-05-04 06:51 -29.99276 -51.16961 18 ft 18 kts 271°
2026-05-04 06:52 -29.99273 -51.17103 18 ft 17 kts 271°
2026-05-04 06:52 -29.99270 -51.17240 18 ft 17 kts 271°
2026-05-04 06:52 -29.99267 -51.17372 18 ft 16 kts 271°
2026-05-04 06:52 -29.99264 -51.17499 18 ft 15 kts 271°
2026-05-04 06:53 -29.99262 -51.17620 18 ft 15 kts 270°
2026-05-04 06:53 -29.99210 -51.17700 18 ft 14 kts
2026-05-04 06:53 -29.99162 -51.17781 18 ft 14 kts 280°
2026-05-04 06:53 -29.99146 -51.17887 18 ft 13 kts 280°
2026-05-04 06:54 -29.99082 -51.17943 19 ft 13 kts 17°
2026-05-04 06:54 -29.99066 -51.17894 18 ft 4 kts 89°
2026-05-04 06:54 -29.99066 -51.17871 18 ft 0 kts 89°